Previsão horária em Abel Tasman National Park

Hoje, 11 Abril, Domingo

Tempo Temperatura Precipitação Vento Pressão Humidade
00:00 +13°C° 0 mm 5 m/s 721 mmHg 96%
01:00 +14°C° 0.1 mm 5 m/s 721 mmHg 96%
02:00 +14°C° 0.1 mm 5 m/s 721 mmHg 96%
03:00 +14°C° 0.1 mm 5 m/s 721 mmHg 96%
04:00 +13°C° 0 mm 4 m/s 722 mmHg 95%
05:00 +12°C° 0 mm 4 m/s 722 mmHg 95%
06:00 +12°C° 0 mm 4 m/s 722 mmHg 95%
07:00 +12°C° 0 mm 4 m/s 723 mmHg 93%
08:00 +13°C° 0 mm 3 m/s 723 mmHg 90%
09:00 +14°C° 0 mm 3 m/s 724 mmHg 88%
10:00 +16°C° 0 mm 3 m/s 724 mmHg 79%
11:00 +18°C° 0 mm 3 m/s 725 mmHg 70%
12:00 +19°C° 0 mm 4 m/s 725 mmHg 60%
13:00 +19°C° 0 mm 4 m/s 725 mmHg 62%
14:00 +19°C° 0 mm 4 m/s 725 mmHg 63%
15:00 +19°C° 0 mm 5 m/s 725 mmHg 64%
16:00 +17°C° 0 mm 5 m/s 725 mmHg 72%
17:00 +15°C° 0 mm 4 m/s 725 mmHg 81%
18:00 +14°C° 0 mm 4 m/s 725 mmHg 89%
19:00 +13°C° 0 mm 4 m/s 726 mmHg 90%
20:00 +13°C° 0 mm 4 m/s 726 mmHg 91%
21:00 +12°C° 0 mm 3 m/s 727 mmHg 92%
22:00 +12°C° 0 mm 3 m/s 727 mmHg 91%
23:00 +11°C° 0 mm 3 m/s 727 mmHg 89%

Amanhã, 12 Abril, Segunda-feira

Tempo Temperatura Precipitação Vento Pressão Humidade
00:00 +12°C° 0 mm 2 m/s 728 mmHg 87%
01:00 +12°C° 0 mm 2 m/s 728 mmHg 86%
02:00 +12°C° 0 mm 2 m/s 727 mmHg 85%
03:00 +12°C° 0 mm 2 m/s 727 mmHg 84%
04:00 +12°C° 0 mm 1 m/s 727 mmHg 82%
05:00 +13°C° 0 mm 1 m/s 727 mmHg 80%
06:00 +13°C° 0 mm 1 m/s 727 mmHg 78%
07:00 +14°C° 0 mm 1 m/s 727 mmHg 79%
08:00 +14°C° 0 mm 1 m/s 728 mmHg 79%
09:00 +15°C° 0 mm 1 m/s 728 mmHg 80%
10:00 +16°C° 0 mm 1 m/s 728 mmHg 77%
11:00 +18°C° 0 mm 1 m/s 728 mmHg 73%
12:00 +19°C° 0 mm 1 m/s 727 mmHg 70%
13:00 +18°C° 0 mm 2 m/s 727 mmHg 71%
14:00 +18°C° 0 mm 2 m/s 727 mmHg 73%
15:00 +18°C° 0 mm 2 m/s 726 mmHg 74%
16:00 +17°C° 0 mm 2 m/s 726 mmHg 81%
17:00 +16°C° 0 mm 2 m/s 726 mmHg 89%
18:00 +15°C° 0 mm 2 m/s 726 mmHg 96%
19:00 +15°C° 0.1 mm 2 m/s 726 mmHg 96%
20:00 +15°C° 0.1 mm 2 m/s 726 mmHg 97%
21:00 +15°C° 0.1 mm 2 m/s 726 mmHg 97%
22:00 +15°C° 0.2 mm 2 m/s 725 mmHg 97%
23:00 +15°C° 0.2 mm 2 m/s 725 mmHg 96%

Depois de amanhã, 13 Abril, Terça-feira

Tempo Temperatura Precipitação Vento Pressão Humidade
00:00 +14°C° 0.2 mm 3 m/s 725 mmHg 96%
01:00 +13°C° 0 mm 3 m/s 725 mmHg 96%
02:00 +13°C° 0 mm 3 m/s 724 mmHg 96%
03:00 +13°C° 0 mm 3 m/s 724 mmHg 96%
04:00 +12°C° 0 mm 3 m/s 724 mmHg 95%
05:00 +11°C° 0 mm 3 m/s 724 mmHg 95%
06:00 +11°C° 0 mm 3 m/s 724 mmHg 95%
07:00 +12°C° 0.1 mm 3 m/s 723 mmHg 91%
08:00 +13°C° 0.1 mm 4 m/s 723 mmHg 88%
09:00 +14°C° 0.1 mm 4 m/s 723 mmHg 85%
10:00 +14°C° 0.3 mm 5 m/s 723 mmHg 81%
11:00 +15°C° 0.3 mm 5 m/s 723 mmHg 76%
12:00 +15°C° 0.3 mm 6 m/s 722 mmHg 72%
13:00 +15°C° 0.2 mm 6 m/s 722 mmHg 71%
14:00 +15°C° 0.2 mm 6 m/s 721 mmHg 70%
15:00 +15°C° 0.2 mm 6 m/s 720 mmHg 69%
16:00 +14°C° 0.1 mm 6 m/s 720 mmHg 74%
17:00 +13°C° 0.1 mm 6 m/s 720 mmHg 79%
18:00 +10°C° 0.1 mm 5 m/s 720 mmHg 84%
19:00 +10°C° 0 mm 5 m/s 720 mmHg 84%
20:00 +10°C° 0 mm 4 m/s 720 mmHg 84%
21:00 +10°C° 0 mm 4 m/s 721 mmHg 85%
22:00 +8°C° 0 mm 4 m/s 721 mmHg 84%
23:00 +8°C° 0 mm 4 m/s 721 mmHg 84%

14 Abril, Quarta-feira

Tempo Temperatura Precipitação Vento Pressão Humidade
00:00 +8°C° 0 mm 4 m/s 721 mmHg 84%
01:00 +7°C° 0 mm 4 m/s 721 mmHg 84%
02:00 +7°C° 0 mm 4 m/s 721 mmHg 84%
03:00 +8°C° 0 mm 3 m/s 721 mmHg 84%
04:00 +7°C° 0 mm 3 m/s 721 mmHg 83%
05:00 +7°C° 0 mm 3 m/s 721 mmHg 83%
06:00 +7°C° 0 mm 2 m/s 721 mmHg 83%
07:00 +8°C° 0 mm 2 m/s 721 mmHg 78%
08:00 +10°C° 0 mm 2 m/s 721 mmHg 73%
09:00 +12°C° 0 mm 1 m/s 721 mmHg 68%
10:00 +14°C° 0 mm 1 m/s 721 mmHg 62%
11:00 +15°C° 0 mm 1 m/s 721 mmHg 56%
12:00 +18°C° 0 mm 1 m/s 721 mmHg 51%
13:00 +18°C° 0 mm 1 m/s 720 mmHg 51%
14:00 +17°C° 0 mm 2 m/s 720 mmHg 51%
15:00 +17°C° 0 mm 2 m/s 720 mmHg 52%
16:00 +16°C° 0 mm 1 m/s 720 mmHg 61%
17:00 +14°C° 0 mm 1 m/s 720 mmHg 71%
18:00 +12°C° 0 mm 1 m/s 720 mmHg 81%
19:00 +11°C° 0 mm 1 m/s 721 mmHg 82%
20:00 +9°C° 0 mm 2 m/s 721 mmHg 83%
21:00 +9°C° 0 mm 3 m/s 722 mmHg 84%
22:00 +8°C° 0 mm 3 m/s 722 mmHg 82%
23:00 +8°C° 0 mm 3 m/s 722 mmHg 81%

15 Abril, Quinta-feira

Tempo Temperatura Precipitação Vento Pressão Humidade
00:00 +8°C° 0 mm 3 m/s 722 mmHg 80%
01:00 +8°C° 0 mm 2 m/s 722 mmHg 79%
02:00 +8°C° 0 mm 2 m/s 722 mmHg 79%
03:00 +9°C° 0 mm 2 m/s 722 mmHg 78%
04:00 +9°C° 0 mm 3 m/s 722 mmHg 78%
05:00 +10°C° 0 mm 3 m/s 722 mmHg 78%
06:00 +11°C° 0 mm 3 m/s 722 mmHg 78%
07:00 +11°C° 0 mm 4 m/s 722 mmHg 79%
08:00 +12°C° 0 mm 4 m/s 722 mmHg 80%
09:00 +12°C° 0 mm 4 m/s 722 mmHg 81%
10:00 +13°C° 0 mm 4 m/s 722 mmHg 75%
11:00 +14°C° 0 mm 3 m/s 722 mmHg 69%
12:00 +16°C° 0 mm 3 m/s 722 mmHg 63%
13:00 +16°C° 0 mm 3 m/s 721 mmHg 66%
14:00 +15°C° 0 mm 4 m/s 721 mmHg 68%
15:00 +15°C° 0 mm 4 m/s 721 mmHg 70%
16:00 +14°C° 0 mm 3 m/s 721 mmHg 76%
17:00 +13°C° 0 mm 3 m/s 721 mmHg 81%
18:00 +13°C° 0 mm 3 m/s 722 mmHg 87%
19:00 +12°C° 0 mm 3 m/s 722 mmHg 88%
20:00 +11°C° 0 mm 3 m/s 722 mmHg 90%
21:00 +10°C° 0 mm 3 m/s 722 mmHg 91%
22:00 +10°C° 0 mm 3 m/s 722 mmHg 90%
23:00 +10°C° 0 mm 4 m/s 722 mmHg 89%

16 Abril, Sexta-feira

Tempo Temperatura Precipitação Vento Pressão Humidade
00:00 +10°C° 0 mm 4 m/s 722 mmHg 88%
01:00 +8°C° 0 mm 4 m/s 722 mmHg 88%
02:00 +8°C° 0 mm 4 m/s 722 mmHg 88%
03:00 +8°C° 0 mm 4 m/s 722 mmHg 88%
04:00 +8°C° 0 mm 4 m/s 722 mmHg 88%
05:00 +8°C° 0 mm 4 m/s 722 mmHg 87%
06:00 +8°C° 0 mm 4 m/s 722 mmHg 87%
07:00 +11°C° 0 mm 4 m/s 722 mmHg 82%
08:00 +12°C° 0 mm 3 m/s 722 mmHg 78%
09:00 +14°C° 0 mm 3 m/s 722 mmHg 73%
10:00 +15°C° 0 mm 4 m/s 722 mmHg 65%
11:00 +17°C° 0 mm 4 m/s 722 mmHg 58%
12:00 +19°C° 0 mm 5 m/s 722 mmHg 50%
13:00 +17°C° 0 mm 5 m/s 722 mmHg 52%
14:00 +17°C° 0 mm 6 m/s 722 mmHg 54%
15:00 +17°C° 0 mm 6 m/s 722 mmHg 56%
16:00 +15°C° 0 mm 5 m/s 722 mmHg 62%
17:00 +14°C° 0 mm 4 m/s 722 mmHg 68%
18:00 +13°C° 0 mm 4 m/s 723 mmHg 74%
19:00 +12°C° 0 mm 4 m/s 723 mmHg 77%
20:00 +11°C° 0 mm 4 m/s 723 mmHg 80%
21:00 +10°C° 0 mm 3 m/s 724 mmHg 83%
22:00 +10°C° 0 mm 4 m/s 724 mmHg 83%
23:00 +8°C° 0 mm 4 m/s 724 mmHg 83%
Mostrar mais

Necessitamos do seu Consentimento

A Meteoprog e os seus Fornecedores de Serviços podem armazenar e aceder a dados pessoais como cookies, identificadores do dispositivo ou outras tecnologias semelhantes existentes no seu dispositivo e processar estes dados para personalizar conteúdos e anúncios, assim como funcionalidades nas redes sociais e análise de tráfego.

  • Armazenar e/ou aceder a informações no seu dispositivo

    Os cookies, identificadores do dispositivo ou outras informações podem ser armazenados ou acedidos no seu dispositivo, para os fins acima indicados.

  • Anúncios e conteúdos personalizados, medição de anúncios e conteúdos, dados sobre o público-alvo e desenvolvimento de produtos

    Os anúncios e os conteúdos podem ser personalizados com base num perfil. Podem ser adicionados dados adicionais para uma maior personalização dos anúncios e dos conteúdos. A eficácia dos anúncios e dos conteúdos pode ser medida. Podem ser obtidas informações sobre o público que visualizou os anúncios e os conteúdos. Estes dados podem ser usados para desenvolver ou melhorar sistemas, softwares ou a experiência do utilizador.

Ao clicar em "Eu concordo”, permitirá o uso de cookies, identificadores do dispositivo e web beacons mencionados ou outras tecnologias semelhantes. As configurações do navegador do seu dispositivo podem ser alteradas.

Para certos fins, podem ser invocados interesses legítimos ao invés de consentimento. Pode ler mais informação sobre este assunto na nossa Política de Privacidade e Cookies.